Theta_e
315 313 311 310 307 306 307 306 307 306 306 308 311 313 319 320 322 325 328 328 329 329 330 329 330 330 330 328 327 327 325 322 322 325 325 325 324 325 324 323 324 324 324
316 316 315 314 313 311 309 306 307 310 312 313 314 311 313 318 321 324 324 327 328 330 329 328 329 329 328 329 329 327 325 324 324 324 324 324 325 325 324 323 323 323 323
317 316 316 316 316 316 313 313 313 314 315 316 315 316 317 317 320 322 325 324 328 328 329 328 328 327 328 328 327 327 326 325 324 324 322 325 323 321 321 322 322 322 323
314 315 316 315 316 316 317 316 315 314 315 313 315 316 318 317 317 319 322 323 324 323 328 327 323 325 326 324 325 326 326 325 325 323 325 321 319 317 319 321 320 321 321
314 313 313 315 316 317 317 316 316 314 313 314 315 317 318 315 315 316 317 321 322 321 322 325 325 325 324 326 325 326 325 323 322 320 319 319 319 319 321 322 322 321 321
314 313 313 313 314 315 315 314 315 314 314 314 314 315 316 318 318 316 315 319 319 321 323 325 325 326 325 325 323 323 321 321 321 321 319 319 320 321 320 319 319 319 318
310 307 309 312 313 313 313 313 313 312 313 314 315 314 315 315 318 319 321 323 323 324 324 324 321 320 320 321 320 319 320 320 319 320 320 319 319 319 318 319 318 318 319
308 303 305 308 310 312 312 311 311 312 314 315 315 317 318 320 321 322 323 324 324 323 322 320 321 321 319 320 320 319 319 320 319 318 317 316 318 317 316 316 316 316 315
310 307 303 306 309 311 312 310 310 310 311 312 311 316 317 318 320 320 321 321 321 320 319 318 317 317 318 318 318 317 317 316 316 315 314 313 312 312 312 311 311 311 311
305 306 309 308 309 311 310 307 308 310 308 307 312 315 315 316 316 316 316 316 316 316 316 315 315 316 316 316 314 314 313 312 312 312 311 311 311 310 309 309 309 309 308
301 303 304 305 306 306 305 306 308 308 309 310 310 310 311 311 311 310 309 310 311 310 311 311 311 311 310 309 309 309 309 309 308 308 307 308 307 307 307 306 306 306 305
299 300 301 302 302 303 304 304 305 305 306 305 305 305 304 304 304 304 304 303 303 303 303 302 302 302 302 302 303 304 303 302 303 304 304 303 303 304 303 303 302 302 302
298 299 299 299 300 300 301 301 301 301 301 301 300 300 300 300 299 299 299 298 298 298 298 297 297 296 296 297 298 298 298 300 300 300 301 300 300 300 300 300 300 299 299
298 298 298 298 298 298 298 298 297 297 296 296 296 295 295 295 295 295 295 295 295 294 294 295 294 295 293 293 293 294 294 295 296 296 297 297 297 297 297 297 297 297 297
297 297 297 297 297 296 296 296 296 295 295 295 294 294 294 294 294 294 293 293 293 293 293 293 292 293 293 292 292 292 292 293 293 294 294 294 294 294 294 294 294 294 294
297 297 296 296 296 295 295 294 294 294 294 293 293 293 292 292 292 291 291 291 290 290 290 289 289 289 289 289 290 290 290 289 289 290 291 291 291 291 292 292 292 292 292
297 296 295 295 295 295 294 294 293 293 293 292 292 292 292 291 291 291 290 290 290 290 289 288 288 288 287 287 287 287 287 287 286 286 287 287 288 290 289 290 291 291 291
297 296 295 294 294 294 293 293 293 292 292 292 292 292 291 291 291 291 290 290 289 289 288 287 286 286 286 286 286 285 286 286 286 287 286 286 287 287 288 289 290 289 289
297 296 295 295 294 294 294 293 293 292 292 292 292 291 291 291 290 291 290 290 289 288 287 287 286 286 285 285 285 284 284 284 284 284 284 284 285 286 287 287 288 288 289
297 296 295 295 294 294 294 293 293 292 292 291 291 291 291 291 290 290 290 289 288 288 287 286 285 284 284 284 283 283 283 283 283 283 284 284 284 284 285 286 286 287 288
296 296 295 295 294 293 293 293 292 292 291 291 291 290 290 290 290 289 289 289 288 287 286 285 284 284 284 284 283 283 282 282 283 283 283 283 284 284 285 284 285 287 286
295 296 295 295 294 293 293 293 292 292 292 291 291 291 291 290 290 289 288 288 287 286 285 284 284 284 284 283 282 282 281 282 282 282 282 282 283 283 283 283 284 286 287
295 295 295 295 294 293 292 293 292 292 292 291 291 291 290 290 289 288 288 287 286 285 284 284 284 283 283 282 282 282 282 282 282 282 282 281 281 281 282 282 283 285 286
295 295 295 294 294 293 292 292 292 292 291 291 291 290 290 289 288 287 287 287 285 284 284 284 283 282 282 282 282 282 283 283 282 282 281 280 281 281 280 282 283 284 285
294 294 294 294 293 292 292 292 292 292 291 290 289 289 289 288 287 287 286 286 284 284 284 283 282 282 282 282 282 282 282 282 282 281 281 281 281 281 281 282 282 283 284
294 294 294 293 293 292 292 292 292 290 289 288 288 288 288 287 286 286 286 284 284 284 283 283 282 282 282 281 282 282 282 282 281 281 281 281 281 281 281 282 282 283 284
Wind_Speed
16 18 19 20 23 24 27 31 32 32 32 34 33 36 30 34 37 41 40 38 39 35 35 36 37 35 38 44 45 45 45 46 45 42 40 39 42 41 41 37 33 33 35
15 17 19 18 19 22 26 28 29 30 30 31 31 30 36 36 34 36 39 41 38 36 34 36 36 35 36 36 41 45 46 45 44 43 41 42 43 42 39 39 37 38 40
8 14 16 16 17 19 21 23 25 26 26 26 28 29 29 34 33 32 32 37 36 30 31 35 35 35 37 39 36 45 48 48 48 45 44 42 38 35 37 43 42 42 42
15 9 12 16 18 17 17 18 17 20 21 26 27 28 30 28 26 27 28 27 29 29 31 36 34 36 40 38 42 46 46 46 45 45 42 39 39 41 45 48 48 47 46
10 12 11 7 11 14 14 13 15 16 18 20 25 24 27 27 29 30 29 28 29 30 29 28 28 31 35 38 40 39 32 27 29 31 36 35 37 42 52 47 45 44 50
1 9 12 14 13 11 11 11 11 15 22 22 22 24 24 24 27 30 29 27 29 29 31 30 28 34 37 26 24 28 23 21 21 31 48 41 38 40 38 39 40 41 44
16 11 1 8 11 10 10 9 10 12 18 19 21 25 26 28 25 26 27 30 31 29 25 23 18 19 21 21 22 21 22 24 28 30 34 37 40 44 45 47 47 53 47
28 28 16 12 10 5 9 11 3 7 6 9 5 13 18 20 15 18 14 24 28 25 19 15 15 16 17 16 19 24 22 23 24 26 27 29 32 30 29 32 32 34 40
29 32 32 17 15 11 0 7 12 11 3 6 17 18 18 19 17 9 7 7 7 8 8 9 8 9 12 12 15 16 19 22 23 24 24 23 22 21 21 21 22 24 31
25 26 28 30 26 15 13 24 24 24 24 24 25 23 19 17 15 13 12 11 9 6 3 3 6 10 13 15 16 18 20 20 21 20 20 21 21 19 18 18 22 24 27
18 19 21 23 24 23 22 21 22 22 20 20 20 20 17 16 13 10 8 6 4 2 1 5 6 9 12 15 16 17 19 20 20 22 22 22 22 22 22 23 24 26 27
14 13 14 15 16 16 15 15 15 15 15 15 14 14 13 11 9 6 4 3 4 4 6 7 9 10 12 13 15 16 17 17 19 20 20 20 20 22 22 24 24 26 28
11 11 11 11 11 10 10 11 11 11 11 11 10 10 9 9 8 7 7 7 7 7 7 9 11 12 13 13 14 16 16 15 16 18 19 20 21 22 24 24 24 25 27
7 7 7 8 8 9 9 10 10 11 11 11 11 10 9 8 8 7 6 6 6 7 8 10 13 13 13 13 14 14 15 14 16 17 18 20 21 22 22 22 24 23 25
3 3 4 5 6 7 8 8 9 9 8 8 8 8 7 6 6 5 6 6 6 7 7 9 11 13 13 14 14 14 14 14 16 18 18 19 20 21 23 22 22 22 23
1 1 3 4 6 6 7 8 8 8 7 7 7 6 6 6 6 6 8 9 9 10 11 11 13 14 14 16 17 17 17 17 18 19 19 20 22 23 23 22 20 20 22
6 6 5 5 5 5 5 5 6 5 5 5 5 5 6 6 7 8 8 9 10 11 11 12 13 14 15 16 16 17 18 19 19 17 19 20 20 20 20 22 21 21 21
9 8 8 7 6 6 5 4 3 2 2 2 2 3 5 6 7 8 9 10 10 12 12 13 14 16 17 19 19 19 21 22 21 21 21 18 18 19 20 19 21 21 21
14 12 11 10 10 8 7 6 5 4 3 2 3 3 4 6 7 9 11 12 13 14 15 15 17 18 18 19 19 20 20 19 18 18 16 17 18 17 18 19 21 20 19
17 15 14 13 12 12 10 9 8 6 5 5 5 6 7 8 9 10 11 12 13 14 15 16 17 18 19 19 19 21 21 21 20 20 19 18 17 16 18 19 20 21 22
19 18 17 17 16 15 13 11 9 8 7 7 8 9 10 10 11 12 13 14 15 16 17 18 19 20 21 21 21 21 20 20 20 20 18 19 19 19 18 18 20 22 21
22 21 20 20 18 17 15 13 12 11 10 10 11 11 12 12 13 13 13 14 15 16 17 19 20 21 21 21 20 19 17 18 18 19 19 19 20 19 19 19 19 21 21
25 25 24 23 22 20 19 17 15 13 13 13 13 13 13 13 13 13 13 13 14 16 17 18 19 21 20 18 17 17 17 17 18 18 18 18 20 23 20 20 19 21 22
28 27 27 26 24 23 21 19 17 16 15 14 15 15 14 14 13 13 13 13 14 14 15 17 19 18 18 16 15 15 15 15 16 16 16 17 18 21 22 19 18 19 20
31 30 29 29 27 25 22 20 18 18 16 15 16 15 14 14 13 12 12 13 13 14 15 16 16 15 15 14 14 14 13 14 14 12 12 16 19 21 19 17 16 17 17
33 32 31 29 28 26 23 20 18 17 16 16 16 17 15 14 13 12 12 12 12 13 14 14 13 13 13 13 12 12 11 11 10 9 13 15 18 18 18 17 16 15 14
Wind_Direction
234 236 235 238 236 237 233 234 236 242 246 242 240 236 247 240 237 235 235 241 241 249 253 254 255 257 262 255 252 257 249 248 249 255 260 261 267 274 278 278 273 271 270
238 235 232 233 237 232 235 242 246 247 246 239 239 240 240 239 237 238 235 238 244 247 251 253 256 260 264 262 264 256 252 258 249 252 254 263 267 269 272 278 276 276 269
229 234 235 234 227 228 235 244 247 241 230 235 236 234 232 233 236 236 237 238 242 236 241 255 261 256 260 270 266 264 255 259 254 253 260 259 263 267 277 277 278 276 268
232 228 235 231 229 232 237 242 237 234 239 230 231 235 225 230 242 244 245 244 245 249 249 256 258 267 262 270 270 271 259 258 249 258 257 260 262 270 272 274 272 272 273
199 239 245 242 240 229 227 230 230 237 238 236 223 225 235 234 237 240 241 246 254 264 263 261 266 266 269 265 264 251 246 261 268 273 273 269 265 272 269 270 266 277 273
119 253 258 247 236 229 226 218 214 227 240 237 232 237 240 240 247 249 251 250 251 257 260 260 266 261 266 240 243 262 271 271 285 286 267 267 269 265 274 278 278 280 267
29 14 256 155 204 218 232 246 250 273 266 267 248 240 243 251 243 240 237 237 249 252 243 234 233 234 242 241 248 261 272 276 280 279 274 274 271 278 278 275 270 269 272
52 54 66 115 124 190 250 261 245 258 276 263 242 234 244 230 236 213 197 210 214 203 202 216 229 238 250 255 270 263 268 263 264 269 270 269 271 276 274 272 273 270 271
62 62 67 95 119 118 126 237 226 237 226 196 159 168 169 154 160 148 167 165 188 206 226 224 240 255 275 274 271 275 272 272 272 271 269 273 273 276 278 276 277 280 279
58 64 70 82 90 95 99 102 118 135 128 108 102 103 110 113 117 118 126 132 139 145 164 256 267 280 287 284 280 281 283 283 280 274 276 279 284 287 282 278 280 279 277
50 62 74 81 87 95 95 94 97 96 93 90 91 93 97 98 99 98 91 87 76 56 286 281 291 289 289 290 289 288 287 286 284 284 284 284 279 276 274 273 270 266 259
51 56 60 69 78 84 84 86 86 86 86 85 82 82 78 74 69 65 48 15 352 338 327 320 312 305 305 305 300 295 293 295 295 294 293 291 285 280 278 271 272 269 264
41 48 59 68 71 73 79 83 88 91 95 94 91 87 82 74 60 43 27 11 1 354 343 340 339 335 331 321 316 312 309 306 298 295 295 295 293 290 288 286 282 278 277
47 51 59 66 70 75 80 82 85 85 79 80 80 75 68 61 51 40 27 10 355 344 334 331 323 324 329 331 327 325 325 322 307 305 302 298 297 296 297 298 293 288 288
78 84 97 105 104 99 92 92 91 86 85 86 84 77 75 63 49 32 20 10 355 344 329 322 316 313 314 317 319 320 316 313 312 308 304 305 305 303 301 299 294 295 287
233 198 157 144 133 127 121 116 111 111 106 97 93 86 81 65 50 30 19 14 6 359 349 339 333 334 331 328 326 323 321 321 317 312 308 306 308 308 306 307 306 298 294
229 223 209 195 175 158 146 136 125 115 99 91 71 56 43 31 20 11 5 359 356 350 345 340 336 336 335 334 334 332 330 330 329 329 325 326 327 317 314 314 303 301 300
241 235 227 217 210 200 187 174 165 131 95 60 29 11 6 360 354 350 348 348 346 343 343 339 336 333 330 328 329 328 324 324 325 324 325 328 326 323 323 320 315 307 303
244 237 230 224 220 217 211 210 209 211 222 265 283 301 326 330 330 334 337 338 337 336 334 332 330 328 326 325 324 324 321 321 320 319 322 316 316 320 324 325 321 312 304
247 241 235 232 229 225 224 223 225 228 238 250 270 290 304 313 317 317 320 323 325 326 326 326 327 326 325 326 326 325 323 322 321 318 313 310 313 320 324 325 325 323 316
250 244 238 236 233 232 232 234 236 245 258 270 281 293 298 301 301 306 312 318 320 320 321 322 324 325 325 326 326 325 323 323 324 322 321 319 315 312 314 321 328 329 321
250 248 245 245 242 238 238 239 242 247 255 265 274 281 285 289 295 301 306 311 313 315 317 319 321 323 324 323 323 322 322 327 327 326 327 327 325 322 317 315 318 325 327
250 249 247 244 242 240 238 242 245 251 258 265 270 274 279 283 287 292 296 302 306 312 315 316 317 318 319 320 320 319 325 329 325 325 327 331 334 333 326 319 318 321 321
250 249 249 247 243 241 242 245 249 253 258 265 269 274 276 279 284 288 292 297 304 309 311 313 315 316 317 319 319 321 325 324 321 322 324 326 321 319 319 319 324 326 322
247 245 244 242 241 240 239 243 252 257 262 269 271 270 269 274 278 281 288 296 302 306 310 313 314 316 318 320 320 322 324 323 327 332 340 337 325 323 325 317 315 321 321
245 243 241 239 238 238 243 247 253 255 263 269 272 270 267 268 271 276 283 291 298 305 310 312 314 316 318 321 322 325 324 325 327 337 332 322 324 332 334 330 316 315 325